Location: Ravensburg
(48.5621°N, 13.4088°E)
Time: 00:00:48
(UTC+01:00)

Envisat - Visible Passes

Search period start: 18 November 2017 00:00
Search period end: 28 November 2017 00:00
Orbit: 764 x 766 km, 98.2° (Epoch: 17 November)

Date Brightness Start Highest point End Pass type
(mag) Time Alt. Az. Time Alt. Az. Time Alt. Az.
18 Nov 4.9 18:46:43 16° NNE 18:46:43 16° NNE 18:47:57 10° N visible
18 Nov 5.7 20:26:56 12° NNW 20:26:56 12° NNW 20:27:15 10° NNW visible
19 Nov 5.0 18:09:40 12° NNE 18:09:40 12° NNE 18:10:22 10° NNE visible
19 Nov 5.3 19:49:53 15° NNW 19:49:53 15° NNW 19:50:44 10° NNW visible
20 Nov 5.1 19:12:50 16° N 19:12:50 16° N 19:13:51 10° N visible
21 Nov 5.0 18:35:46 14° NNE 18:35:46 14° NNE 18:36:39 10° N visible
21 Nov 5.7 20:15:59 11° NNW 20:15:59 11° NNW 20:16:14 10° NNW visible
22 Nov 5.1 17:58:42 10° NNE 17:58:42 10° NNE 17:58:49 10° NNE visible
22 Nov 5.3 19:38:55 14° N 19:38:55 14° N 19:39:36 10° NNW visible
23 Nov 5.1 19:01:51 14° N 19:01:51 14° N 19:02:38 10° N visible
24 Nov 5.1 18:24:47 12° NNE 18:24:47 12° NNE 18:25:18 10° NNE visible
24 Nov 5.7 20:04:59 11° NNW 20:04:59 11° NNW 20:05:11 10° NNW visible
25 Nov 5.3 19:27:55 13° N 19:27:55 13° N 19:28:27 10° N visible
26 Nov 5.2 18:50:50 13° N 18:50:50 13° N 18:51:23 10° N visible
27 Nov 5.2 18:13:45 10° NNE 18:13:45 10° NNE 18:13:53 10° NNE visible
27 Nov 5.6 19:53:58 11° NNW 19:53:58 11° NNW 19:54:05 10° NNW visible
